Regional Weather Roundup
Issued by NWS

Home | Current Version | Previous Version | Graphics & Text | Print | Product List | Glossary On
Versions: 1 2 3 4 5 6 7 8 9 10 11 12 13 14 15 16 17 18 19 20 21 22 23 24 25 26 27 28 29 30 31 32 33 34 35 36 37 38 39 40 41 42 43 44 45 46 47 48 49 50
000
ASUS43 KIND 011059
RWRIN

WEATHER ROUNDUP FOR INDIANA
NATIONAL WEATHER SERVICE INDIANAPOLIS IN
700 AM EDT SUN MAY 01 2016

NOTE: "FAIR" INDICATES FEW OR NO CLOUDS BELOW 12,000 FEET WITH NO
SIGNIFICANT WEATHER AND/OR OBSTRUCTIONS TO VISIBILITY.

* - STATION DOES NOT REPORT WEATHER SUCH AS PRECIPITATION OR FOG.

+ - STATION NOT QUALITY CONTROLLED BY THE NATIONAL WEATHER SERVICE.
    USE DATA WITH CAUTION...ESPECIALLY DEWPOINT AND RELATIVE
    HUMIDITY OBSERVATIONS.

INZ001>003-010>013-019-020-011200-
NORTHWEST INDIANA

CITY           SKY/WX    TMP DP  RH WIND       PRES   REMARKS
GARY /AIRPORT/ CLOUDY    46  46 100 N12       29.93R FOG

$$

LMZ046-743>745-011200-
SOUTHERN LAKE MICHIGAN

STATION/POSITION TIME  TEMP    WIND        PRES    WAVE
                       AIR SEA DIR/SP/G            HT
                 (UTC) (F)     (DEG/KT/KT) (MB)    (FT)
BURNS HARBOR     1012   46      30/ 10/ 14 1013.2R
MICHIGAN CITY    1000   47      10/  9/  9   N/A

$$

INZ004-005-014>016-021>024-011200-
NORTH CENTRAL INDIANA

CITY           SKY/WX    TMP DP  RH WIND       PRES   REMARKS
GOSHEN         CLOUDY    49  47  93 NE5       29.90R FOG
PERU/GRISSOM   FOG       52  52 100 NE6       29.87R VSB 1
SOUTH BEND     CLOUDY    48  47  96 VRB5      29.92R

$$

INZ006>009-017-018-025>027-011200-
NORTHEAST INDIANA

CITY           SKY/WX    TMP DP  RH WIND       PRES   REMARKS
ANGOLA *+      CLOUDY    46  46 100 NE3       29.89F
FORT WAYNE     FOG       50  49  96 E5        29.91R VSB 1/2

$$

INZ028-029-035-036-043>045-051>053-011200-
WEST CENTRAL INDIANA

CITY           SKY/WX    TMP DP  RH WIND       PRES   REMARKS
CRAWFORDSVL +  MOCLDY    57  57 100 W5        29.87S
LAFAYETTE      FOG       52  52 100 NE3       29.88R VSB 1/4
TERRE HAUTE    CLOUDY    57  54  89 CALM      29.86S

$$

INZ030>032-037>040-046>048-054>057-064-065-011200-
CENTRAL INDIANA

CITY           SKY/WX    TMP DP  RH WIND       PRES   REMARKS
COLUMBUS       MOCLDY    59  59 100 S7        29.88  FOG
INDIANAPOLIS   CLOUDY    61  58  90 CALM      29.85S
-EAGLE CREEK   CLOUDY    60  59  96 CALM      29.86R FOG
KOKOMO *+      CLOUDY    54  50  87 NE6       29.88R VSB 1/2
SHELBYVILLE    CLOUDY    62  59  90 E5        29.87S FOG

$$

INZ033-034-041-042-049-050-058-059-011200-
EAST CENTRAL INDIANA

CITY           SKY/WX    TMP DP  RH WIND       PRES   REMARKS
MUNCIE         CLOUDY    63  60  90 W5        29.88S

$$

INZ060-061-067>069-081>083-085>088-011200-
SOUTHWEST INDIANA

CITY           SKY/WX    TMP DP  RH WIND       PRES   REMARKS
EVANSVILLE     PTCLDY    56  54  93 CALM      29.89R
HUNTINGBURG *+ CLEAR     57  54  88 S8        29.90R VSB 1

$$

INZ062-063-066-070>080-084-089>092-011200-
SOUTH CENTRAL AND SOUTHEAST INDIANA

CITY           SKY/WX    TMP DP  RH WIND       PRES   REMARKS
BLOOMINGTON    PTCLDY    58  56  93 SE3       29.87R
MADISON *+     PTCLDY    59  59 100 CALM      29.92R
SEYMOUR +      PTCLDY    61  61 100 CALM      29.88S FOG

$$




USA.gov is the U.S. government's official web portal to all federal, state and local government web resources and services.